Simultaneous Nadir Overpasses (SNOs) Predictions

Prediction of SNOs between AQUA and GOES-15 Satellite Orbit:

Table of predicted SNOs for the next 14.0 days since TLE Epoch: 8/11/2017
Index Date Time (AQUA) AQUA Lat,Lon GOES-15 Lat,Lon Distance(km) Time Diff (sec)
1 08/12/2017 10:19:18 -0.47,-131.07 0.35,-134.91 436.55 80
2 08/12/2017 22:40:42 -0.62,-136.26 -0.36,-134.93 150.63 80
3 08/14/2017 22:28:30 -0.02,-133.30 -0.36,-134.97 189.43 80
4 08/15/2017 10:49:46 1.11,-138.46 0.37,-134.97 396.35 80
5 08/17/2017 10:37:35 0.45,-135.51 0.36,-135.00 57.73 80
6 08/19/2017 10:25:23 -0.15,-132.55 0.35,-135.02 280.28 80
7 08/19/2017 22:46:47 -0.93,-137.74 -0.36,-135.02 309.56 80
8 08/21/2017 22:34:35 -0.32,-134.78 -0.35,-135.03 28.59 80
9 08/23/2017 22:22:24 0.35,-131.83 -0.35,-135.05 366.58 80
10 08/24/2017 10:43:40 0.75,-136.99 0.35,-135.07 218.17 80




NCC Satellite Simultaneous Nadir Overpasses (SNOs) Prediction Service
